LROP Weather Reports


time (UTC)temp
F
wind
direction
speed
knots
gust
knots
rain 1hr
in
rain 24hr
in
rain mn
in
humidity
%
barometer
mb
20260504014802 41 270 7.8 0.0 0.00 0.00 0.00 81 1018.0
20260504013307 41 270 7.8 0.0 0.00 0.00 0.00 81 1018.0
20260504011915 41 270 8.7 0.0 0.00 0.00 0.00 81 1018.0
20260504010302 41 270 8.7 0.0 0.00 0.00 0.00 81 1018.0
20260504004916 41 260 6.1 0.0 0.00 0.00 0.00 87 1018.0
20260504003301 41 260 6.1 0.0 0.00 0.00 0.00 87 1018.0
20260504001802 41 280 5.2 0.0 0.00 0.00 0.00 81 1018.0
20260504000302 41 280 5.2 0.0 0.00 0.00 0.00 81 1018.0
20260503234841 41 300 6.1 0.0 0.00 0.00 0.00 87 1018.0
20260503233302 41 300 6.1 0.0 0.00 0.00 0.00 87 1018.0
20260503231805 43 300 7.0 0.0 0.00 0.00 0.00 81 1018.0
20260503230314 43 300 7.0 0.0 0.00 0.00 0.00 81 1018.0
20260503224802 43 300 7.0 0.0 0.00 0.00 0.00 81 1018.0
20260503223314 43 300 7.0 0.0 0.00 0.00 0.00 81 1018.0
20260503221818 43 290 7.0 0.0 0.00 0.00 0.00 81 1019.0
20260503220344 43 290 7.0 0.0 0.00 0.00 0.00 81 1019.0
20260503214809 43 270 7.0 0.0 0.00 0.00 0.00 81 1019.0
20260503213302 43 270 7.0 0.0 0.00 0.00 0.00 81 1019.0
20260503211802 45 280 6.1 0.0 0.00 0.00 0.00 76 1019.0
20260503210302 45 280 6.1 0.0 0.00 0.00 0.00 76 1019.0
20260503204809 45 280 7.0 0.0 0.00 0.00 0.00 76 1019.0
20260503203415 45 280 7.0 0.0 0.00 0.00 0.00 76 1019.0
20260503201802 46 270 6.1 0.0 0.00 0.00 0.00 66 1019.0
20260503200311 46 270 6.1 0.0 0.00 0.00 0.00 66 1019.0
20260503194826 48 270 4.3 0.0 0.00 0.00 0.00 62 1020.0
20260503193416 48 270 4.3 0.0 0.00 0.00 0.00 62 1020.0
20260503191802 50 0 0.0 0.0 0.00 0.00 0.00 50 1019.0
20260503190302 50 0 0.0 0.0 0.00 0.00 0.00 50 1019.0
20260503184915 52 0 0.0 0.0 0.00 0.00 0.00 50 1019.0
20260503183301 52 0 0.0 0.0 0.00 0.00 0.00 50 1019.0
20260503181802 52 140 1.7 0.0 0.00 0.00 0.00 47 1019.0
20260503180301 52 140 1.7 0.0 0.00 0.00 0.00 47 1019.0
20260503174822 52 110 2.6 0.0 0.00 0.00 0.00 50 1019.0
20260503173326 52 110 2.6 0.0 0.00 0.00 0.00 50 1019.0
20260503171802 55 100 1.7 0.0 0.00 0.00 0.00 47 1019.0
20260503170302 55 100 1.7 0.0 0.00 0.00 0.00 47 1019.0
20260503150302 61 230 2.6 0.0 0.00 0.00 0.00 34 1019.0
20260503140309 59 70 7.8 0.0 0.00 0.00 0.00 31 1020.0
20260503130302 59 110 5.2 0.0 0.00 0.00 0.00 31 1021.0
20260503110323 59 70 7.0 0.0 0.00 0.00 0.00 36 1022.0
20260503090323 57 80 8.7 0.0 0.00 0.00 0.00 41 1023.0
20260503080312 54 70 7.8 0.0 0.00 0.00 0.00 41 1023.0
20260503071804 52 50 8.7 0.0 0.00 0.00 0.00 47 1023.0
20260503070303 52 50 8.7 0.0 0.00 0.00 0.00 47 1023.0
20260503060302 48 20 6.1 0.0 0.00 0.00 0.00 66 1023.0
20260503054802 46 20 5.2 0.0 0.00 0.00 0.00 66 1023.0
20260503053302 46 20 5.2 0.0 0.00 0.00 0.00 66 1023.0
20260503051802 45 10 6.1 0.0 0.00 0.00 0.00 71 1023.0
20260503050302 45 10 6.1 0.0 0.00 0.00 0.00 71 1023.0
20260503044802 41 360 5.2 0.0 0.00 0.00 0.00 81 1023.0
20260503043303 41 360 5.2 0.0 0.00 0.00 0.00 81 1023.0
20260503041802 41 20 2.6 0.0 0.00 0.00 0.00 81 1022.0
20260503040325 41 20 2.6 0.0 0.00 0.00 0.00 81 1022.0
20260503034804 37 350 5.2 0.0 0.00 0.00 0.00 93 1022.0
20260503033302 37 350 5.2 0.0 0.00 0.00 0.00 93 1022.0
20260503031802 39 360 7.0 0.0 0.00 0.00 0.00 81 1022.0
20260503030302 39 360 7.0 0.0 0.00 0.00 0.00 81 1022.0
20260503024816 39 350 7.8 0.0 0.00 0.00 0.00 81 1022.0
20260503023302 39 350 7.8 0.0 0.00 0.00 0.00 81 1022.0
20260503021802 37 350 6.1 0.0 0.00 0.00 0.00 87 1022.0
20260503020302 37 350 6.1 0.0 0.00 0.00 0.00 87 1022.0